Flag for U.S.A. Weather past 2 weeks in Breckenridge, Colorado, U.S.A.

Now
45 °F

Clear.


Feels Like: 38 °F
Forecast: 42 / 70 °F
Wind: 14 mph from South

Location: Copper Mountain - Red Cliff Pass

Current Time: Oct 24, 2014 at 9:35:04 PM

Latest Report: Oct 24, 2014 at 8:57 PM


Visibility: 10 mi

Pressure: 30.64 "Hg

Humidity: 29%

Dew point: 14 °F

Location of BreckenridgeLocation

Historic Weather in Breckenridge — Graph

°F

Breckenridge temperature yesterday

Maximum temperature yesterday: 46 °F (at 1:57 PM)
Minimum temperature yesterday: 34 °F (at 12:17 AM)
Average temperature yesterday: 39 °F

Past Weeks' High & Low Weather Summary

 TemperatureHumidityPressure
High55 °F (Oct 15, 11:37 AM)93% (Oct 11, 2:37 AM)30.66 "Hg (Oct 11, 2:37 AM)
Low23 °F (Oct 13, 5:37 AM)2% (Oct 15, 2:57 AM)29.95 "Hg (Oct 12, 10:17 AM)
Average39 °F55%30.41 "Hg
* Reported Oct 9 8:17 PM — Oct 24 8:37 PM, Breckenridge, Weather by CustomWeather, © 2014

Note: Actual official high and low records may vary slightly from our data, if they occured in-between our weather recording intervals... More about our weather records

Advertising

Breckenridge weather history for previous 24 hours

 ConditionsComfort  
Time TempWeatherWind HumidityBarometerVisibility
8:37 PM
Oct 24
45 °FClear.9 mph27%30.64 "Hg10 mi
8:17 PM45 °FClear.14 mph27%30.64 "Hg10 mi
7:57 PM45 °FClear.14 mph27%30.64 "Hg10 mi
7:37 PM45 °FClear.14 mph27%30.64 "Hg10 mi
7:17 PM45 °FClear.17 mph29%30.64 "Hg10 mi
6:57 PM45 °FSunny.17 mph29%30.64 "Hg10 mi
6:37 PM45 °FSunny.14 mph29%30.64 "Hg10 mi
5:57 PM46 °FSunny.13 mph27%30.64 "Hg10 mi
5:37 PM50 °FSunny.15 mph24%30.64 "Hg10 mi
5:17 PM54 °FSunny.18 mph21%30.62 "Hg10 mi
4:57 PM54 °FSunny.15 mph19%30.62 "Hg10 mi
4:37 PM54 °FSunny.16 mph18%30.62 "Hg10 mi
4:17 PM54 °FSunny.16 mph18%30.62 "Hg10 mi
3:57 PM54 °FSunny.10 mph16%30.62 "Hg10 mi
3:17 PM54 °FSunny.13 mph18%30.62 "Hg10 mi
2:57 PM54 °FSunny.9 mph16%30.62 "Hg10 mi
2:37 PM54 °FSunny.15 mph16%30.62 "Hg10 mi
2:17 PM54 °FSunny.12 mph18%30.62 "Hg10 mi
1:57 PM54 °FSunny.6 mph18%30.62 "Hg10 mi
1:37 PM54 °FSunny.8 mph18%30.62 "Hg10 mi
1:17 PM54 °FSunny.10 mph16%30.62 "Hg10 mi
12:57 PM52 °FSunny.12 mph17%30.64 "Hg10 mi
12:37 PM52 °FSunny.8 mph17%30.64 "Hg10 mi
12:17 PM52 °FSunny.7 mph17%30.64 "Hg10 mi
11:57 AM48 °FSunny.12 mph17%30.64 "Hg10 mi
11:37 AM46 °FSunny.9 mph20%30.65 "Hg10 mi
11:17 AM46 °FSunny.10 mph20%30.65 "Hg10 mi
10:57 AM46 °FSunny.9 mph21%30.66 "Hg10 mi
10:37 AM48 °FSunny.12 mph20%30.66 "Hg10 mi
10:17 AM46 °FSunny.15 mph21%30.65 "Hg10 mi
9:57 AM46 °FSunny.15 mph20%30.64 "Hg10 mi
9:37 AM45 °FSunny.14 mph25%30.64 "Hg10 mi
9:17 AM45 °FSunny.16 mph23%30.64 "Hg10 mi
8:57 AM43 °FSunny.17 mph24%30.64 "Hg10 mi
8:37 AM43 °FSunny.17 mph24%30.63 "Hg10 mi
8:17 AM41 °FClear.17 mph26%30.62 "Hg10 mi
7:57 AM41 °FClear.15 mph26%30.61 "Hg10 mi
7:37 AM41 °FClear.18 mph26%30.60 "Hg10 mi
7:17 AM41 °FClear.15 mph26%30.59 "Hg10 mi
6:57 AM43 °FClear.14 mph24%30.59 "Hg10 mi
6:37 AM41 °FClear.16 mph28%30.59 "Hg10 mi
5:57 AM41 °FClear.10 mph28%30.59 "Hg10 mi
5:37 AM41 °FClear.9 mph28%30.58 "Hg10 mi
5:17 AM41 °FClear.10 mph28%30.57 "Hg10 mi
4:57 AM41 °FClear.14 mph31%30.56 "Hg10 mi
4:37 AM41 °FClear.17 mph31%30.56 "Hg10 mi
4:17 AM41 °FClear.14 mph31%30.56 "Hg10 mi
3:57 AM41 °FClear.16 mph31%30.55 "Hg10 mi
3:37 AM41 °FClear.15 mph31%30.56 "Hg10 mi
3:17 AM41 °FClear.10 mph31%30.56 "Hg10 mi
2:57 AM39 °FClear.3 mph42%30.56 "Hg10 mi
2:37 AM41 °FClear.8 mph31%30.56 "Hg10 mi
2:17 AM41 °FClear.9 mph31%30.56 "Hg10 mi
1:57 AM41 °FClear.9 mph31%30.55 "Hg10 mi
1:37 AM41 °FClear.10 mph31%30.55 "Hg10 mi
1:17 AM41 °FClear.10 mph31%30.55 "Hg10 mi
12:57 AM41 °FClear.9 mph33%30.55 "Hg10 mi
12:37 AM41 °FClear.9 mph33%30.55 "Hg10 mi
12:17 AM41 °FClear.8 mph33%30.55 "Hg10 mi
11:57 PM
Oct 23
41 °FClear.7 mph33%30.55 "Hg10 mi
11:37 PM41 °FClear.7 mph39%30.55 "Hg10 mi
11:17 PM41 °FClear.9 mph39%30.56 "Hg10 mi
10:57 PM41 °FClear.10 mph39%30.55 "Hg10 mi
10:37 PM41 °FClear.13 mph42%30.55 "Hg10 mi
10:17 PM41 °FClear.12 mph39%30.55 "Hg10 mi
9:57 PM41 °FClear.13 mph45%30.55 "Hg10 mi
9:37 PM41 °FClear.10 mph39%30.54 "Hg10 mi
9:17 PM41 °FClear.12 mph39%30.55 "Hg10 mi
Weather by CustomWeather, © 2014

See weather overviewHow to use our weather pages